Regional Weather Roundup
Issued by NWS

Home | Current Version | Previous Version | Graphics & Text | Print | Product List | Glossary On
Versions: 1 2 3 4 5 6 7 8 9 10 11 12 13 14 15 16 17 18 19 20 21 22 23 24 25 26 27 28 29 30 31 32 33 34 35 36 37 38 39 40 41 42 43 44 45 46 47 48 49 50
000
ASUS43 KMKX 271811
RWRWI

WISCONSIN REGIONAL WEATHER ROUNDUP
NATIONAL WEATHER SERVICE MILWAUKEE/SULLIVAN WI
100 PM CDT TUE JUN 27 2017

NOTE: "FAIR" INDICATES FEW OR NO CLOUDS BELOW 12,000 FEET WITH NO
SIGNIFICANT WEATHER AND/OR OBSTRUCTIONS TO VISIBILITY.

WIZ001-002-006>008-014>016-023>028-271900-
NORTHWEST WISCONSIN

CITY           SKY/WX    TMP DP  RH WIND       PRES   REMARKS
SUPERIOR ARPT  NOT AVBL
ASHLAND        MOSUNNY   73  50  44 SW9G17    29.97F
6HR MIN TEMP:  53; 6HR MAX TEMP:  73;

HAYWARD        SUNNY     70  42  36 SW10      30.01F
6HR MIN TEMP:  50; 6HR MAX TEMP:  70;

SIREN          MOSUNNY   73  41  32 W8G22     30.00F
6HR MIN TEMP:  53; 6HR MAX TEMP:  73;

CUMBERLAND     SUNNY     68  41  37 S6G16     30.02F
RICE LAKE      MOSUNNY   70  42  35 S10       30.03F
6HR MIN TEMP:  51; 6HR MAX TEMP:  71;

CHETEK         SUNNY     71  47  41 W8        30.02F
6HR MIN TEMP:  50; 6HR MAX TEMP:  71;

LADYSMITH      SUNNY     71  43  35 SW8       30.05S
6HR MIN TEMP:  51; 6HR MAX TEMP:  72;

EAU CLAIRE     SUNNY     72  43  35 SW12      30.02F
6HR MIN TEMP:  53; 6HR MAX TEMP:  73;

MENOMONIE      SUNNY     73  42  33 S6        30.03F
6HR MIN TEMP:  54; 6HR MAX TEMP:  73;

NEW RICHMOND   SUNNY     72  41  33 SW8       30.02F
6HR MIN TEMP:  54; 6HR MAX TEMP:  72;

OSCEOLA        SUNNY     73  42  32 SW13      30.04F
6HR MIN TEMP:  50; 6HR MAX TEMP:  73;

$$

WIZ003>005-009-010-017-018-271900-
NORTH CENTRAL WISCONSIN

CITY           SKY/WX    TMP DP  RH WIND       PRES   REMARKS
MANITOWISH WTR PTSUNNY   69  46  44 W10       30.01F
6HR MIN TEMP:  50; 6HR MAX TEMP:  70;

ARBOR VITAE    MOSUNNY   72  49  43 NW6       30.01F
6HR MIN TEMP:  53; 6HR MAX TEMP:  72;

WOODRUFF       MOSUNNY   72  49  43 NW6       30.01F
6HR MIN TEMP:  53; 6HR MAX TEMP:  72;

RHINELANDER    MOSUNNY   70  49  47 MISG      30.03F
6HR MIN TEMP:  51; 6HR MAX TEMP:  70;

EAGLE RIVER    MOSUNNY   67  44  42 NW13      30.01F
6HR MIN TEMP:  51; 6HR MAX TEMP:  69;

LAND O LAKES   MOSUNNY   69  42  37 CALM      30.02S
6HR MIN TEMP:  52; 6HR MAX TEMP:  69;

PHILLIPS       SUNNY     68  45  43 SW6       30.02F
6HR MIN TEMP:  50; 6HR MAX TEMP:  69;

TOMAHAWK       NOT AVBL
MEDFORD        MOSUNNY   67  46  46 W7        30.05S
6HR MIN TEMP:  52; 6HR MAX TEMP:  68;

MERRILL        PTSUNNY   69  46  43 NW13G18   30.04F
6HR MIN TEMP:  49; 6HR MAX TEMP:  70;

$$

WIZ029-030-035-036-043>047-271900-
CENTRAL WISCONSIN

CITY           SKY/WX    TMP DP  RH WIND       PRES   REMARKS
WAUSAU         MOSUNNY   70  46  42 NW12      30.03F
6HR MIN TEMP:  53; 6HR MAX TEMP:  71;

MOSINEE        PTSUNNY   70  46  43 W10       30.06F
MARSHFIELD     SUNNY     70  46  42 W9        30.05F
6HR MIN TEMP:  53; 6HR MAX TEMP:  71;

STEVENS POINT  SUNNY     69  44  39 W10       30.05F
6HR MIN TEMP:  49; 6HR MAX TEMP:  70;

WAUPACA        MOSUNNY   75  44  33 W7        30.04F
6HR MIN TEMP:  55; 6HR MAX TEMP:  75; 6HR PCP:  0.01;

WAUTOMA        MOSUNNY   73  46  38 W5        30.06F
6HR MIN TEMP:  55; 6HR MAX TEMP:  73;

WISC RAPIDS    MOSUNNY   72  46  39 W7        30.06F
6HR MIN TEMP:  53; 6HR MAX TEMP:  73;

CAMP DOUGLAS   PTSUNNY   72  50  46 W9        30.06F
$$

WIZ011>013-019>022-031-037>040-048>050-271900-
NORTHEAST WISCONSIN

CITY           SKY/WX    TMP DP  RH WIND       PRES   REMARKS
ANTIGO         PTSUNNY   68  48  48 NW8       30.04S
6HR MIN TEMP:  49; 6HR MAX TEMP:  69;

SHAWANO        PTSUNNY   73  47  38 W8        30.02F
6HR MIN TEMP:  54; 6HR MAX TEMP:  74;

OCONTO         CLOUDY    70  51  51 W7        30.01S
6HR MIN TEMP:  52; 6HR MAX TEMP:  71;

STURGEON BAY     N/A     69  50  50 W8        30.03F
GREEN BAY      PTSUNNY   73  54  51 W10G16    30.03F
6HR MIN TEMP:  54; 6HR MAX TEMP:  74;

MANITOWOC      PTSUNNY   71  49  45 SW9G18    30.04F
6HR MIN TEMP:  56; 6HR MAX TEMP:  71;

APPLETON       NOT AVBL
CLINTONVILLE   CLOUDY    72  43  35 W10G16    30.03S
OSHKOSH        MOSUNNY   72  48  42 W6        30.04F
6HR MIN TEMP:  54; 6HR MAX TEMP:  72;

$$

WIZ032>034-041-042-053>061-271900-
SOUTHWEST WISCONSIN

CITY           SKY/WX    TMP DP  RH WIND       PRES   REMARKS
LA CROSSE      SUNNY     77  43  29 S8        30.06F
6HR MIN TEMP:  58; 6HR MAX TEMP:  78;

SPARTA         SUNNY     72  46  39 SW5       30.07F
6HR MIN TEMP:  46; 6HR MAX TEMP:  72;

VIROQUA        MOSUNNY   71  44  38 W8        30.09S
6HR MIN TEMP:  53; 6HR MAX TEMP:  71;

BOSCOBEL       SUNNY     74  43  32 VRB3      30.08F
6HR MIN TEMP:  51; 6HR MAX TEMP:  75;

PRAIRIE DU CHI SUNNY     72  40  31 SW6       30.08F
6HR MIN TEMP:  51; 6HR MAX TEMP:  73;

PLATTEVILLE    MOSUNNY   70  43  37 SW5       30.11F
6HR MIN TEMP:  53; 6HR MAX TEMP:  72;

$$

WIZ056-057-062-063-064-067-068-271900-
SOUTH CENTRAL WISCONSIN

CITY           SKY/WX    TMP DP  RH WIND       PRES   REMARKS
REEDSBURG      MOSUNNY   72  46  40 W6        30.08S
6HR MIN TEMP:  51; 6HR MAX TEMP:  73;

BARABOO/DELLS  MOSUNNY   70  43  38 W9        30.08F
6HR MIN TEMP:  52; 6HR MAX TEMP:  72;

LONE ROCK      SUNNY     74  44  34 VRB6      30.08F
6HR MIN TEMP:  49; 6HR MAX TEMP:  74;

MINERAL POINT  SUNNY     72  41  33 NW5       30.10F
MADISON        PTSUNNY   71  45  39 SW9       30.09F
6HR MIN TEMP:  55; 6HR MAX TEMP:  72;

MIDDLETON      MOSUNNY   72  46  38 NW3       30.10S
6HR MIN TEMP:  55; 6HR MAX TEMP:  73;

WATERTOWN      NOT AVBL
MONROE         SUNNY     70  39  32 CALM      30.10F
JANESVILLE     PTSUNNY   73  43  33 W9        30.10F
$$

WIZ051-052-058>065-066-070>072-271900-
SOUTHEAST WISCONSIN

CITY           SKY/WX    TMP DP  RH WIND       PRES   REMARKS
MILWAUKEE      PTSUNNY   73  47  39 W12       30.08F
6HR MIN TEMP:  59; 6HR MAX TEMP:  75;

WAUKESHA       MOSUNNY   70  46  43 W9        30.10F
MILWAUKEE/TIMM MOSUNNY   70  43  37 W13G22    30.09F
RACINE         MOSUNNY   71  47  42 W5        30.10F
6HR MIN TEMP:  56; 6HR MAX TEMP:  73;

KENOSHA        PTSUNNY   73  48  41 VRB7G16   30.09F
6HR MIN TEMP:  54; 6HR MAX TEMP:  73;

FOND DU LAC    MOSUNNY   73  46  38 NW14G24   30.06F
6HR MIN TEMP:  54; 6HR MAX TEMP:  74;

SHEBOYGAN      MOSUNNY   73  50  44 W14G23    30.05F
6HR MIN TEMP:  55; 6HR MAX TEMP:  73;

WEST BEND      PTSUNNY   70  45  40 W12       30.07F
JUNEAU         MOSUNNY   69  48  46 W10       30.09S
6HR MIN TEMP:  52; 6HR MAX TEMP:  70;

$$

LSZ147-162-271900-
LAKE SUPERIOR

STATION/POSITION TIME  TEMP    WIND        PRES    WAVE
                       AIR SEA DIR/SP/G            HT/PER
                 (UTC) (F)     (DEG/KT/KT) (MB)    (FT/S)
W MID LAKE BUOY  1750   45 39  220/ 10/ 12 1014.7F   1
DEVILS ISLAND    1800   64     220/ 10/ 13 1014.3F
SAXON HARBOR     1740   70     270/  5/ 12 1014.9F
$$

LMZ867-665-643>646-271900-
LAKE MICHIGAN

STATION/POSITION TIME  TEMP    WIND        PRES    WAVE
                       AIR SEA DIR/SP/G            HT/PER
                 (UTC) (F)     (DEG/KT/KT) (MB)    (FT/S)
CHAMBERS ISLAND  1740   66     160/  5/ 11 1016.3S
S GREEN BAY BUOY 1800   66     190/ 10/ 12 1016.2
N MID LAKE BUOY  1750   58 58  230/  6/  6 1017.3S   1
NORTHPORT PIER   1740   63     130/ 10/ 11 1016.3S
KEWAUNEE LAKESHO 1742   66     200/  3/  7 1016.5F
SHEBOYGAN LAKESH 1800   69     250/  8/ 10 1017.4F
PORT WASHINGTON  1730   74     320/  6/ 13 1018.6F
ATWATER BUOY     1709   67 56  34



USA.gov is the U.S. government's official web portal to all federal, state and local government web resources and services.